User: anonymous   Login
Location: Unspecified
(0.0000°N, 0.0000°E)
Time: 19:44:38
(UTC+00:00)
Language:

Kosmos-2184 - Orbit

View from above orbital plane
View from above orbital plane
View from above satellite
View from above satellite

Ground track
Ground track

The orbit data is extracted from the following two-line orbital elements,

1 21937U 92020A   17269.56991740  .00000022  00000-0  70282-5 0  9999
2 21937  82.9316 311.2901 0033541  13.1930 140.5500 13.73143730275363
Epoch (UTC): 26 September 2017 13:40:40
Eccentricity: 0.0033541
inclination: 82.9316°
perigee height: 963 km
apogee height: 1013 km
right ascension of ascending node: 311.2901°
argument of perigee: 13.1930°
revolutions per day: 13.73143730
mean anomaly at epoch: 140.5500°
orbit number at epoch: 27536

The dashed part of the orbit path shows where the satellite is in the earth's shadow,  

DLR